| time (UTC) | temp F | wind direction | speed MPH | gust MPH | rain 1hr in | rain 24hr in | rain mn in | humidity % | barometer mb |
| 20260502183029 | 61 | 0 | 2.0 | 9.0 | 0.00 | 0.00 | 0.00 | 37 | 1015.8 |
| 20260502181534 | 61 | 245 | 2.0 | 10.0 | 0.00 | 0.00 | 0.00 | 40 | 1016.1 |
| 20260502163028 | 57 | 169 | 2.0 | 8.0 | 0.00 | 0.00 | 0.00 | 42 | 1017.9 |
| 20260502161527 | 55 | 218 | 2.0 | 7.0 | 0.00 | 0.00 | 0.00 | 43 | 1018.1 |
| 20260502151526 | 52 | 23 | 1.0 | 6.0 | 0.00 | 0.00 | 0.00 | 53 | 1018.6 |
| 20260502123028 | 36 | 168 | 0.0 | 3.0 | 0.00 | 0.00 | 0.00 | 77 | 1019.2 |
| 20260502121538 | 34 | 167 | 0.0 | 3.0 | 0.00 | 0.00 | 0.00 | 78 | 1019.2 |
| 20260502114528 | 32 | 0 | 0.0 | 1.0 | 0.00 | 0.00 | 0.00 | 79 | 1019.2 |
| 20260502113026 | 32 | 0 | 0.0 | 1.0 | 0.00 | 0.00 | 0.00 | 79 | 1019.2 |
| 20260502111532 | 32 | 0 | 0.0 | 1.0 | 0.00 | 0.00 | 0.00 | 79 | 1019.1 |
| 20260502110033 | 32 | 0 | 0.0 | 1.0 | 0.00 | 0.00 | 0.00 | 79 | 1019.2 |
| 20260502104528 | 32 | 0 | 0.0 | 1.0 | 0.00 | 0.00 | 0.00 | 78 | 1019.2 |
| 20260502103026 | 33 | 0 | 0.0 | 1.0 | 0.00 | 0.00 | 0.00 | 78 | 1019.3 |
| 20260502101526 | 32 | 0 | 0.0 | 1.0 | 0.00 | 0.00 | 0.00 | 78 | 1019.1 |
| 20260502091527 | 33 | 0 | 0.0 | 1.0 | 0.00 | 0.00 | 0.00 | 75 | 1019.0 |
| 20260502071528 | 35 | 0 | 0.0 | 0.0 | 0.00 | 0.00 | 0.00 | 72 | 1019.3 |
| 20260502070027 | 35 | 0 | 0.0 | 1.0 | 0.00 | 0.00 | 0.00 | 72 | 1019.4 |
| 20260502064531 | 36 | 0 | 0.0 | 1.0 | 0.00 | 0.00 | 0.00 | 71 | 1019.6 |
| 20260502063031 | 36 | 0 | 0.0 | 1.0 | 0.00 | 0.00 | 0.00 | 70 | 1019.7 |
| 20260502061526 | 36 | 0 | 0.0 | 0.0 | 0.00 | 0.00 | 0.00 | 70 | 1019.6 |
| 20260502060027 | 36 | 0 | 0.0 | 0.0 | 0.00 | 0.00 | 0.00 | 70 | 1019.6 |
| 20260502054533 | 36 | 0 | 0.0 | 0.0 | 0.00 | 0.00 | 0.00 | 70 | 1019.6 |
| 20260502053035 | 36 | 0 | 0.0 | 0.0 | 0.00 | 0.00 | 0.00 | 70 | 1019.6 |
| 20260502051530 | 37 | 0 | 0.0 | 0.0 | 0.00 | 0.00 | 0.00 | 69 | 1019.6 |
| 20260502050030 | 37 | 0 | 0.0 | 1.0 | 0.00 | 0.00 | 0.00 | 68 | 1019.5 |
| 20260502044528 | 37 | 0 | 0.0 | 0.0 | 0.00 | 0.00 | 0.00 | 68 | 1019.5 |
| 20260502043027 | 37 | 0 | 0.0 | 0.0 | 0.00 | 0.00 | 0.00 | 67 | 1019.5 |
| 20260502041529 | 38 | 0 | 0.0 | 0.0 | 0.00 | 0.00 | 0.00 | 67 | 1019.6 |
| 20260502040028 | 39 | 0 | 0.0 | 0.0 | 0.00 | 0.00 | 0.00 | 64 | 1019.5 |
| 20260502034528 | 39 | 0 | 0.0 | 0.0 | 0.00 | 0.00 | 0.00 | 61 | 1019.7 |
| 20260502033032 | 39 | 0 | 0.0 | 0.0 | 0.00 | 0.00 | 0.00 | 65 | 1019.7 |
| 20260502031526 | 39 | 0 | 0.0 | 1.0 | 0.00 | 0.00 | 0.00 | 62 | 1019.6 |
| 20260502030028 | 40 | 0 | 0.0 | 0.0 | 0.00 | 0.00 | 0.00 | 63 | 1019.7 |
| 20260502024527 | 40 | 0 | 0.0 | 0.0 | 0.00 | 0.00 | 0.00 | 60 | 1019.7 |
| 20260502023026 | 41 | 0 | 0.0 | 0.0 | 0.00 | 0.00 | 0.00 | 58 | 1019.7 |
| 20260502021528 | 41 | 0 | 0.0 | 0.0 | 0.00 | 0.00 | 0.00 | 60 | 1019.6 |
| 20260502020027 | 42 | 0 | 0.0 | 0.0 | 0.00 | 0.00 | 0.00 | 51 | 1019.5 |
| 20260502014529 | 43 | 0 | 0.0 | 0.0 | 0.00 | 0.00 | 0.00 | 49 | 1019.2 |
| 20260502013027 | 44 | 0 | 0.0 | 0.0 | 0.00 | 0.00 | 0.00 | 50 | 1019.2 |
| 20260502011526 | 45 | 0 | 0.0 | 0.0 | 0.00 | 0.00 | 0.00 | 47 | 1019.0 |
| 20260502010026 | 47 | 0 | 0.0 | 0.0 | 0.00 | 0.00 | 0.00 | 50 | 1019.1 |
| 20260502004544 | 48 | 0 | 0.0 | 2.0 | 0.00 | 0.00 | 0.00 | 44 | 1019.0 |
| 20260502003028 | 49 | 271 | 0.0 | 2.0 | 0.00 | 0.00 | 0.00 | 48 | 1019.1 |
| 20260502001527 | 49 | 193 | 1.0 | 2.0 | 0.00 | 0.00 | 0.00 | 42 | 1019.0 |
| 20260502000046 | 50 | 246 | 1.0 | 3.0 | 0.00 | 0.00 | 0.00 | 41 | 1018.9 |
| 20260501234532 | 50 | 357 | 1.0 | 5.0 | 0.00 | 0.00 | 0.00 | 41 | 1019.0 |
| 20260501233028 | 50 | 268 | 1.0 | 5.0 | 0.00 | 0.00 | 0.00 | 44 | 1019.0 |
| 20260501231536 | 52 | 256 | 1.0 | 6.0 | 0.00 | 0.00 | 0.00 | 42 | 1018.9 |
| 20260501230027 | 52 | 7 | 2.0 | 5.0 | 0.00 | 0.00 | 0.00 | 41 | 1018.8 |
| 20260501224527 | 50 | 23 | 1.0 | 4.0 | 0.00 | 0.00 | 0.00 | 45 | 1018.9 |
| 20260501223026 | 50 | 0 | 0.0 | 3.0 | 0.00 | 0.00 | 0.00 | 47 | 1018.9 |
| 20260501221528 | 50 | 53 | 1.0 | 5.0 | 0.00 | 0.00 | 0.00 | 44 | 1019.0 |
| 20260501220028 | 51 | 319 | 1.0 | 6.0 | 0.00 | 0.00 | 0.00 | 41 | 1019.0 |
| 20260501214525 | 51 | 344 | 2.0 | 5.0 | 0.00 | 0.00 | 0.00 | 48 | 1018.8 |
| 20260501213029 | 49 | 251 | 2.0 | 4.0 | 0.00 | 0.00 | 0.00 | 43 | 1018.8 |
| 20260501211529 | 49 | 20 | 1.0 | 5.0 | 0.00 | 0.00 | 0.00 | 42 | 1019.1 |
| 20260501210028 | 50 | 305 | 2.0 | 5.0 | 0.00 | 0.00 | 0.00 | 42 | 1019.0 |
| 20260501204530 | 50 | 6 | 2.0 | 4.0 | 0.00 | 0.00 | 0.00 | 46 | 1019.2 |
| 20260501203028 | 51 | 52 | 2.0 | 8.0 | 0.00 | 0.00 | 0.00 | 47 | 1019.2 |
| 20260501201530 | 49 | 296 | 1.0 | 6.0 | 0.00 | 0.00 | 0.00 | 47 | 1019.2 |
| 20260501200029 | 50 | 57 | 2.0 | 5.0 | 0.00 | 0.00 | 0.00 | 47 | 1019.4 |
| 20260501194526 | 50 | 311 | 1.0 | 7.0 | 0.00 | 0.00 | 0.00 | 49 | 1019.3 |
| 20260501193029 | 49 | 318 | 2.0 | 6.0 | 0.00 | 0.00 | 0.00 | 50 | 1019.4 |
| 20260501191529 | 49 | 323 | 2.0 | 5.0 | 0.00 | 0.00 | 0.00 | 46 | 1019.5 |
| 20260501190027 | 49 | 32 | 3.0 | 8.0 | 0.00 | 0.00 | 0.00 | 47 | 1019.5 |
| 20260501184531 | 49 | 22 | 2.0 | 6.0 | 0.00 | 0.00 | 0.00 | 45 | 1019.5 |